Aurora, OR

8:43 AM PST on December 05, 2016 (GMT -0800)
Aurora State

Weather History for KUAO - October, 2012

Change the Weather History Date:

Sunday, October 7, 2012

  Actual Average Record
Temperature  
Mean Temperature 58 °F -  
Max Temperature 80 °F - 82 °F (2014)
Min Temperature 37 °F - 37 °F (2012)
Degree Days  
Heating Degree Days 6    
Month to date heating degree days 30  
Since 1 July heating degree days 147  
Cooling Degree Days 0    
Month to date cooling degree days 1  
Year to date cooling degree days 295  
Growing Degree Days 8 (Base 50)    
Moisture  
Dew Point 29 °F    
Average Humidity 43    
Maximum Humidity 70    
Minimum Humidity 15    
Precipitation  
Precipitation 0.00 in - 0.61 in (2016)
Month to date precipitation 0.00  
Year to date precipitation 29.97  
Sea Level Pressure  
Sea Level Pressure 29.98 in    
Wind  
Wind Speed 2 mph (NNE)    
Max Wind Speed 12 mph    
Max Gust Speed 15 mph    
Visibility 10 miles    
Events      
T = Trace of Precipitation, MM = Missing Value Source: NWS Daily Summary

Daily Weather History Graph

Daily Weather History Graph

Search for Another Location

Airport or City:

Trip Planner

Search our weather history database for the weather conditions in past years. The results will help you decide how hot, cold, wet, or windy it might be!

Date:

Astronomy

Oct. 07, 2012 Rise Set
Actual Time 7:17 AM PDT 6:39 PM PDT
Civil Twilight 6:48 AM PDT 7:08 PM PDT
Nautical Twilight 6:13 AM PDT 7:42 PM PDT
Astronomical Twilight 5:39 AM PDT 8:16 PM PDT
Moon 11:45 PM PDT (10/7) 2:09 PM PDT (10/7)
Length of Visible Light 12h 20m
Length of Day
11h 21m
Waning Gibbous, 55% of the Moon is Illuminated
Oct 7
Waning Gibbous
Oct 8
Last Quarter
Oct 15
New
Oct 21
First Quarter
Oct 29
Full

Hourly Weather History & Observations

Time (PDT) Temp. Windchill Dew Point Humidity Pressure Visibility Wind Dir Wind Speed Gust Speed Precip Events Conditions
12:53 AM 60.1 °F - 19.0 °F 20% 30.03 in 10.0 mi NNE 9.2 mph - N/A   Clear
1:53 AM 55.9 °F - 21.0 °F 26% 30.04 in 10.0 mi NNE 8.1 mph - N/A   Clear
2:53 AM 52.0 °F - 21.9 °F 31% 30.03 in 10.0 mi North 8.1 mph - N/A   Clear
3:53 AM 51.1 °F - 23.0 °F 33% 30.03 in 10.0 mi Calm Calm - N/A   Clear
4:53 AM 42.1 °F 40.2 °F 27.0 °F 55% 30.03 in 10.0 mi SSE 3.5 mph - N/A   Clear
5:53 AM 37.9 °F 35.5 °F 27.0 °F 65% 30.03 in 10.0 mi SSE 3.5 mph - N/A   Clear
6:53 AM 41.0 °F - 27.0 °F 57% 30.03 in 10.0 mi Calm Calm - N/A   Clear
7:53 AM 37.9 °F - 28.0 °F 68% 30.04 in 10.0 mi Calm Calm - N/A   Clear
8:53 AM 48.0 °F - 30.0 °F 50% 30.04 in 10.0 mi Calm Calm - N/A   Clear
9:53 AM 62.1 °F - 28.0 °F 28% 30.04 in 10.0 mi Variable 3.5 mph - N/A   Clear
10:53 AM 66.9 °F - 28.9 °F 24% 30.02 in 10.0 mi Variable 4.6 mph - N/A   Clear
11:53 AM 70.0 °F - 30.0 °F 23% 30.01 in 10.0 mi Calm Calm - N/A   Clear
12:53 PM 73.9 °F - 28.0 °F 18% 29.98 in 10.0 mi Variable 4.6 mph - N/A   Clear
1:53 PM 75.9 °F - 27.0 °F 16% 29.96 in 10.0 mi Variable 3.5 mph - N/A   Clear
2:53 PM 79.0 °F - 26.1 °F 14% 29.94 in 10.0 mi North 6.9 mph - N/A   Clear
3:53 PM 79.0 °F - 28.0 °F 15% 29.93 in 10.0 mi Variable 3.5 mph - N/A   Clear
4:53 PM 79.0 °F - 28.0 °F 15% 29.91 in 10.0 mi NW 3.5 mph - N/A   Clear
5:53 PM 73.9 °F - 32.0 °F 21% 29.91 in 10.0 mi North 5.8 mph - N/A   Clear
6:53 PM 68.0 °F - 32.0 °F 26% 29.91 in 10.0 mi Calm Calm - N/A   Clear
7:53 PM 61.0 °F - 33.1 °F 35% 29.91 in 10.0 mi Calm Calm - N/A   Clear
8:53 PM 57.0 °F - 35.1 °F 44% 29.91 in 10.0 mi Calm Calm - N/A   Clear
9:53 PM 52.0 °F - 36.0 °F 54% 29.91 in 10.0 mi Calm Calm - N/A   Clear
10:53 PM 52.0 °F - 35.1 °F 53% 29.92 in 10.0 mi Calm Calm - N/A   Clear
11:53 PM 48.9 °F - 34.0 °F 56% 29.93 in 10.0 mi Calm Calm - N/A   Clear